This is the latest recevied weather packets stored in our database for station/object N8HON. If no packets are shown the sender has not sent any weather packets the latest 10 day(s).
| Time | Temp. | Humidity | Pressure | Rain* | Wind** | Luminosity | Snow |
|---|---|---|---|---|---|---|---|
| 1777700037 | 6.67° C | 70% | 1012.7 hPa | 0 mm | - | 0 W/m² | - |
| 1777699734 | 6.67° C | 73% | 1012.7 hPa | 0 mm | - | 0 W/m² | - |
| 1777699433 | 6.67° C | 73% | 1012.7 hPa | 0 mm | - | 0 W/m² | - |
| 1777699130 | 6.67° C | 75% | 1012.6 hPa | 0 mm | - | 0 W/m² | - |
| 1777698829 | 7.22° C | 73% | 1012.5 hPa | 0 mm | - | 0 W/m² | - |
| 1777698525 | 7.22° C | 72% | 1012.2 hPa | 0 mm | - | 0 W/m² | - |
| 1777698222 | 7.78° C | 73% | 1012.4 hPa | 0 mm | - | 0 W/m² | - |
| 1777697918 | 7.78° C | 74% | 1012.5 hPa | 0 mm | - | 0 W/m² | - |
| 1777697615 | 7.78° C | 75% | 1012.6 hPa | 0 mm | - | 0 W/m² | - |
| 1777697312 | 7.78° C | 73% | 1012.5 hPa | 0 mm | - | 0 W/m² | - |
| 1777697008 | 7.78° C | 71% | 1012.7 hPa | 0 mm | - | 0 W/m² | - |
| 1777696705 | 7.78° C | 71% | 1012.7 hPa | 0 mm | - | 0 W/m² | - |
| 1777696403 | 7.78° C | 72% | 1012.4 hPa | 0 mm | - | 0 W/m² | - |
| 1777696103 | 7.78° C | 72% | 1012.3 hPa | 0 mm | - | 0 W/m² | - |
| 1777695800 | 7.78° C | 71% | 1012.3 hPa | 0 mm | - | 0 W/m² | - |
| 1777695497 | 7.78° C | 72% | 1012.3 hPa | 0 mm | - | 0 W/m² | - |
| 1777695194 | 7.78° C | 71% | 1012.2 hPa | 0 mm | - | 0 W/m² | - |
| 1777694892 | 7.78° C | 72% | 1012.4 hPa | 0 mm | - | 0 W/m² | - |
| 1777694589 | 7.78° C | 70% | 1012.2 hPa | 0 mm | - | 0 W/m² | - |
| 1777694284 | 7.78° C | 71% | 1012.2 hPa | 0 mm | - | 0 W/m² | - |
| 1777693981 | 7.78° C | 70% | 1012.4 hPa | 0 mm | - | 0 W/m² | - |
| 1777693679 | 8.33° C | 69% | 1012.4 hPa | 0 mm | - | 0 W/m² | - |
| 1777693377 | 8.33° C | 67% | 1012.3 hPa | 0 mm | - | 0 W/m² | - |
| 1777693075 | 7.78° C | 70% | 1012.3 hPa | 0 mm | - | 0 W/m² | - |
| 1777692772 | 7.78° C | 71% | 1012.2 hPa | 0 mm | - | 0 W/m² | - |
* Rain latest hour (hover to see other rain measurements)
** Current wind speed in m/s (hover to see current wind gust speed)